weather.gov     
National Weather Service

Regional Weather Roundup
NWS Homepage
This page is being discontinued on March 12, 2014.
The same data is available at this site. Please update your bookmarks.
Thank you, and we apologize for the inconvenience.
Please send an email to SR-SRH.Webmaster@noaa.gov with any concerns.


Current Version
Previous Version:    01  02  03  04  05  06  07  08  09  10  11  12  13  14  15  16  17  18  19  20  21  22  23  24  25  26  
[Printable]
574
ASUS45 KCYS 230110
RWRWY

WYOMING REGIONAL WEATHER ROUNDUP
NATIONAL WEATHER SERVICE CHEYENNE WY
600 PM MST MON DEC 22 2014

NOTE:  "FAIR" INDICATES FEW OR NO CLOUDS BELOW 12,000 FEET
WITH NO SIGNIFICANT WEATHER AND/OR OBSTRUCTIONS TO VISIBILITY.

WYZ001-230200-
YELLOWSTONE NATIONAL PARK

CITY           SKY/WX    TMP DP  RH WIND       PRES   REMARKS
LK YELLOWSTONE   N/A     14  11  87 W6        29.98R WCI   5
W YELLOWSTONE  NOT AVBL

$$
WYZ002>013-054>058-071-098>099-230200-
NORTHERN WYOMING

CITY           SKY/WX    TMP DP  RH WIND       PRES   REMARKS
JACKSON        MOCLDY    19  18  93 E6        29.99R WCI  11
CODY           CLOUDY    30  19  64 NE14      29.95R WCI  20
GREYBULL       FAIR      33  25  72 NW20      29.92R WCI  21
WORLAND        FAIR      30  24  78 NW15      29.92R WCI  19
SHERIDAN       CLOUDY    35  24  64 NW25G33   29.89R WCI  23
BUFFALO        FAIR      31  21  66 NW39G52   29.82R WCI  14
GILLETTE       FLURRIES  33  22  63 NW22G31   29.78R WCI  21
HULETT           N/A    N/A N/A N/A MISG        N/A
NEWCASTLE      LGT SNOW  30  27  86 NW20G29   29.69R WCI  18

$$
WYZ014>020-022>026-101>103-230200-
CENTRAL WYOMING

CITY           SKY/WX    TMP DP  RH WIND       PRES   REMARKS
BIG PINEY      FAIR      20  16  84 N10       29.94R WCI   9
PINEDALE       FAIR      18  14  86 W10       29.93S WCI   6
DUBOIS         NOT AVBL
LANDER         CLOUDY    27  21  78 SW3       29.92R
RIVERTON       CLOUDY    29  19  66 NW14      29.92R WCI  18
CASPER         CLOUDY    25  19  78 N7        29.85R WCI  17
DOUGLAS        FAIR      29  22  75 NW22G31   29.80R WCI  15

$$
WYZ021-027>030-104>119-230200-
SOUTHERN WYOMING

CITY           SKY/WX    TMP DP  RH WIND       PRES   REMARKS
EVANSTON       LGT SNOW  26  24  92 NW12      29.97S FOG     WCI  16
KEMMERER       FAIR      23  18  80 NW13      29.95R WCI  11
FORT BRIDGER   LGT SNOW  27  26  95 N13G21    30.00R WCI  16
ROCK SPRINGS   FAIR      23  14  68 NW13      29.90R WCI  11
DIXON          CLOUDY    22  19  86 NW6       29.89R WCI  15
RAWLINS        FAIR      22  15  75 NW20G25   29.86R WCI   7
SARATOGA       CLOUDY    23  21  93 NW8       29.85R WCI  14
LARAMIE        CLOUDY    21  17  84 NW20      29.75R WCI   6
CHEYENNE       CLOUDY    26  17  68 NW22G29   29.74R WCI  12
TORRINGTON     FAIR     N/A N/A N/A NW21      29.72S
PINE BLUFFS    FAIR      28  23  80 NW16      29.73R WCI  17

$$




U.S. Dept. of Commerce
NOAA National Weather Service
1325 East West Highway
Silver Spring, MD 20910
E-mail: w-nws.webmaster@noaa.gov
Page last modified: May 16, 2007
NATIONAL WEATHER SERVICE: for Safety, for Work, for Fun - FOR LIFE